Forside
METAR-TAF:

METAR-TAF

Lufthavne :

Salem-Leckrone Airport

Salem, Illinois, USA

Breddekreds: 38-38-34N, længdekreds: 088-57-51W, højde: 175 m

Aktuelle vejr

Denne rapport blev lavet for 21 minutter siden, kl. 17:15 UTC
Vind 8 kt fra østsydøst
Temperatur -6°C
Fugtighed 62%
Tryk 1033 hPa
Sigt: 16.1 km
skyfri

METAR: KSLO 211715Z AUTO 11008KT 10SM CLR M06/M12 A3051 RMK AO2 T10611120

Tid: 11:36 (17:36 UTC)


TAF: fraværende

Vejrobservationer og prognoser fra mere end 4000 lufthavne (METAR og TAF).

De gule og røde prikker repræsenterer de meteorologiske stationer.

Flyt musen over at se navnet på stationen.

Så klik over at se vejr observationer og prognoser.

At skifte det kort: Klik på de grønne knapper med et sort kors for at zoome ind; på den grønne knap med en bindestreg for at zoome ud; eller på de grønne pile for tilstødende kort.


METAR-TAF: